Weather History for Lancaster, PA

Change the Weather History Date:

Tuesday, October 23, 2012

  Actual Average Record
Temperature  
Mean Temperature 55 °F -  
Max Temperature 66 °F 64 °F 82 °F (1979)
Min Temperature 46 °F 41 °F 26 °F (1982)
Degree Days  
Heating Degree Days 10    
Growing Degree Days 5 (Base 50)    
Moisture  
Dew Point 52 °F    
Average Humidity 87    
Maximum Humidity 100    
Minimum Humidity 75    
Precipitation  
Precipitation 0.06 in - - ()
Sea Level Pressure  
Sea Level Pressure 30.08 in    
Wind  
Wind Speed 1 mph (East)    
Max Wind Speed 5 mph    
Max Gust Speed -    
Visibility 5 miles    
Events Fog , Rain    
Averages and records for this station are not official NWS values.
T = Trace of Precipitation, MM = Missing Value Source: NWS Daily Summary

Daily Weather History Graph

Daily Weather History Graph

Search for Another Location

Airport:

Trip Planner

Search our weather history database for the weather conditions in past years. The results will help you decide how hot, cold, wet, or windy it might be!

Date:

Astronomy

Oct. 23, 2012 Rise Set
Actual Time 7:24 AM EDT 6:13 PM EDT
Civil Twilight 6:57 AM EDT 6:41 PM EDT
Nautical Twilight 6:25 AM EDT 7:12 PM EDT
Astronomical Twilight 5:54 AM EDT 7:44 PM EDT
Moon 2:56 PM EDT (10/23) 1:14 AM EDT (10/23)
Length of Visible Light 11h 43m
Length of Day
10h 48m
Waxing Gibbous, 66% of the Moon is Illuminated
Oct 23
Waxing Gibbous
Oct 29
Full
Nov 6
Last Quarter
Nov 13
New
Nov 20
First Quarter

Hourly Weather History & Observations

Time (EDT) Temp. Dew Point Humidity Pressure Visibility Wind Dir Wind Speed Gust Speed Precip Events Conditions
12:53 AM 46.9 °F 43.0 °F 86% 30.11 in 8.0 mi Calm Calm - N/A   Clear
1:53 AM 46.0 °F 43.0 °F 89% 30.10 in 8.0 mi Calm Calm - N/A   Clear
2:53 AM 48.0 °F 43.0 °F 83% 30.10 in 8.0 mi Calm Calm - N/A   Clear
3:53 AM 48.0 °F 43.0 °F 83% 30.09 in 8.0 mi Calm Calm - N/A   Partly Cloudy
4:53 AM 48.9 °F 44.1 °F 83% 30.10 in 8.0 mi Calm Calm - N/A   Overcast
5:53 AM 48.9 °F 45.0 °F 86% 30.10 in 8.0 mi Calm Calm - N/A   Overcast
6:53 AM 48.0 °F 45.0 °F 89% 30.11 in 7.0 mi Calm Calm - N/A   Mostly Cloudy
10:11 AM 53.6 °F 48.2 °F 82% 30.16 in 2.5 mi WSW 4.6 mph - 0.01 in Rain Light Rain
10:53 AM 53.1 °F 48.9 °F 86% 30.15 in 4.0 mi Calm Calm - 0.03 in Rain Light Rain
11:53 AM 55.0 °F 51.1 °F 86% 30.12 in 4.0 mi SE 3.5 mph - 0.03 in   Overcast
12:53 PM 57.0 °F 53.1 °F 87% 30.11 in 4.0 mi NNW 3.5 mph - 0.00 in   Overcast
1:53 PM 59.0 °F 55.0 °F 87% 30.08 in 4.0 mi Calm Calm - N/A   Scattered Clouds
2:53 PM 63.0 °F 55.9 °F 78% 30.06 in 5.0 mi Calm Calm - N/A   Haze
3:53 PM 64.9 °F 57.0 °F 75% 30.05 in 5.0 mi Calm Calm - N/A   Haze
4:53 PM 64.9 °F 57.0 °F 75% 30.05 in 6.0 mi ENE 3.5 mph - N/A   Haze
5:53 PM 64.0 °F 57.9 °F 80% 30.05 in 5.0 mi ENE 3.5 mph - N/A   Haze
6:53 PM 62.1 °F 57.0 °F 84% 30.05 in 6.0 mi Calm Calm - N/A   Haze
7:53 PM 61.0 °F 57.0 °F 87% 30.06 in 5.0 mi Calm Calm - N/A   Clear
8:53 PM 60.1 °F 55.9 °F 86% 30.07 in 4.0 mi Calm Calm - N/A   Scattered Clouds
9:53 PM 59.0 °F 55.9 °F 90% 30.08 in 6.0 mi Calm Calm - N/A   Clear
10:53 PM 57.0 °F 55.0 °F 93% 30.07 in 2.0 mi ESE 3.5 mph - N/A   Partly Cloudy
11:12 PM 57.2 °F 55.4 °F 94% 30.07 in 1.8 mi Calm Calm - N/A   Clear
11:19 PM 57.2 °F 55.4 °F 94% 30.07 in 2.0 mi Calm Calm - N/A   Clear
11:26 PM 55.4 °F 55.4 °F 100% 30.07 in 1.0 mi Calm Calm - N/A   Clear
11:33 PM 55.4 °F 53.6 °F 94% 30.07 in 0.5 mi Calm Calm - N/A Fog Fog
11:43 PM 55.4 °F 53.6 °F 94% 30.07 in 0.2 mi Calm Calm - N/A Fog Fog
11:53 PM 57.0 °F 55.0 °F 93% 30.07 in 0.5 mi Calm Calm - N/A Fog Fog